STARLINK-34924

Last updated on Tue Sep 16 2025 00:02:08 GMT+0000 (Coordinated Universal Time)

1 65469U 25195M 25257.89856290 .06059169 00000+0 25371-1 0 9994 2 65469 53.1548 0.8160 0014860 333.4224 26.6035 15.80825299 2994
UTC large
Height (km)
Speed (km/s)
/
Latitude / Longitude
Inclination (degrees)
Orbital Period (minutes)
Azimuth
Elevation
Range (km)
Doppler Factor

Next 0 passes for location: London (51.5072 / 0.1276)

Sorry there are no passes over London.